Location: Hilton Head Island
(32.2163°N, 80.7526°W)
Time: 21:25:52
(UTC-05:00)

Explorer 7 - Pass Details

Date: 17 February 2026
Orbit: 430 x 542 km, 50.2° (Epoch: 5 March)

Event Time Altitude Azimuth Distance (km) Brightness Sun altitude
Rises 23:10:16 0° 297° (WNW) 2,623 - -61.4°
Reaches altitude 10° 23:12:47 10° 282° (WNW) 1,753 - -61.8°
Maximum altitude 23:15:55 22° 231° (SW) 1,181 - -62.2°
Drops below altitude 10° 23:19:06 10° 179° (S) 1,783 - -62.7°
Sets 23:21:41 0° 164° (SSE) 2,680 - -63.1°
